[[{"header":{"parameterUnit":"m.s-1","parameterCategory":1,"la1":30.2991,"la2":30.254,"lo1":-89.0895,"lo2":-89.0444,"dy":0.0017,"dx":0.0017,"nx":28,"ny":28,"refTime":"2023-09-10T09:00:00:Z","depth":0,"parameterNumber":2,"parameterNumberName":"U-component_of_WINDS"},"data":[0,0,0,0,0,0,0,0,0,0,0,0,0,0,0,0,0,0,0,0,0,0,0,0,0,0,0,0,0,0,0,0,0,0,0,0,0,0,0,0,0,0,0,0,0,0,0,0,0,0,0,0,0,0,0,0,0,0,0.8194,0.8193,0,0.8165,0.8165,0.8165,0.8153,0.8153,0.8153,0.8153,0.8122,0.8122,0.8121,0,0,0,0,0,0,0,0,0,0,0,0,0,0.8237,0.8236,0.8194,0.8193,0.8193,0.8165,0.8165,0.8165,0.8153,0.8153,0.8153,0.8153,0.8123,0.8122,0.8121,0,0,0,0,0,0,0,0,0,0,0,0,0,0.8214,0.8236,0.8194,0.8184,0.8183,0.8165,0.8165,0.8164,0.8153,0.8153,0.8153,0.8154,0.8123,0.8122,0.812,0.811,0,0,0.8116,0.8116,0,0,0,0,0,0,0,0,0.8216,0.8213,0.8186,0.8185,0.8183,0.8163,0.8169,0.8146,0.8153,0.8164,0.8153,0.8154,0.8136,0.8133,0.8128,0.8108,0.8107,0.8116,0.8115,0.8115,0.8114,0,0,0,0,0,0,0,0.8217,0.8214,0.8182,0.8186,0.8184,0.8181,0.8178,0.8164,0.815,0.8163,0.8163,0.8159,0.8135,0.8129,0.8127,0.8107,0.8116,0.8115,0.8114,0.8114,0.8077,0.8077,0,0,0,0,0,0,0.8221,0.8215,0.8183,0.8182,0.82,0.818,0.8176,0.8169,0.815,0.8147,0.8159,0.8159,0.8131,0.8128,0.8126,0.8112,0.8115,0.8114,0.8113,0.8077,0.8077,0.8077,0,0,0,0,0,0,0.8222,0.8218,0.8184,0.8198,0.8194,0.8179,0.8171,0.8169,0.8163,0.8147,0.8144,0.8156,0.8131,0.8128,0.8114,0.8111,0.8113,0.8112,0.8078,0.8077,0.8077,0.8084,0,0,0,0,0,0,0.8223,0.8218,0.8214,0.8198,0.8193,0.8174,0.8171,0.8168,0.8161,0.816,0.8143,0.814,0.8131,0.8116,0.8113,0.8109,0.8111,0.8078,0.8077,0.8077,0.8084,0.8084,0.8084,0,0,0,0,0,0.8224,0.8217,0.8214,0.821,0.8188,0.8174,0.8171,0.8161,0.816,0.8156,0.8146,0.8141,0.8112,0.8115,0.8111,0.8107,0.8078,0.8078,0.8077,0.8084,0.8084,0.8084,0,0,0,0,0,0,0.8233,0.8215,0.8211,0.8199,0.8188,0.8172,0.8166,0.8161,0.8149,0.8149,0.8137,0.8133,0.8121,0.8112,0.8116,0.8095,0.8094,0.8093,0.8101,0.8101,0.8101,0.8103,0.811,0,0,0,0,0,0.8233,0.8223,0.8208,0.8199,0.8193,0.8181,0.8174,0.8168,0.8155,0.8151,0.8139,0.8127,0.8115,0.8108,0.8096,0.8083,0.8079,0.8078,0.8078,0.8079,0.8078,0.807,0.8069,0.8076,0.8076,0.8076,0,0,0.8234,0.8223,0.8217,0.82,0.8191,0.818,0.8177,0.8166,0.8158,0.8149,0.8135,0.8127,0.8112,0.8099,0.8093,0.8092,0.8075,0.8078,0.8078,0.8077,0.8069,0.8069,0.8068,0.8075,0.8076,0.8076,0,0,0.8229,0.8221,0.8211,0.8203,0.8189,0.8181,0.8178,0.8163,0.8157,0.8144,0.8136,0.8127,0.8107,0.8097,0.8089,0.8082,0.8076,0.8078,0.8078,0.8071,0.8071,0.807,0.8067,0.8066,0.8078,0.8078,0.8078,0,0.8232,0.8217,0.8207,0.8197,0.819,0.8181,0.8172,0.8163,0.8146,0.8141,0.814,0.8115,0.8105,0.8089,0.8088,0.8082,0.8079,0.808,0.8072,0.8071,0.807,0.8067,0.8066,0.8078,0.8078,0.8078,0.8078,0,0.822,0.821,0.8204,0.8188,0.818,0.817,0.8159,0.8152,0.8146,0.8138,0.8124,0.8112,0.8098,0.8093,0.8088,0.8077,0.8077,0.8074,0.8073,0.807,0.8067,0.8066,0.8078,0.8078,0.8078,0.8078,0,0,0.8219,0.8199,0.8197,0.819,0.8175,0.8166,0.8156,0.8143,0.8137,0.8125,0.8116,0.81,0.8097,0.8089,0.8082,0.8075,0.807,0.8073,0.8073,0.8073,0.8057,0.8059,0.8058,0.8067,0.8067,0.8066,0.8058,0,0.8213,0.8195,0.8186,0.8172,0.8162,0.8154,0.8145,0.8135,0.8127,0.8117,0.8108,0.8096,0.8094,0.8089,0.8082,0.8072,0.8067,0.8073,0.8058,0.8057,0.8061,0.8057,0.8058,0.8051,0.8057,0.8057,0.8057,0,0.8203,0.8192,0.8177,0.8163,0.8158,0.815,0.8138,0.8128,0.8116,0.8111,0.8102,0.8095,0.8083,0.8083,0.8067,0.8072,0.8065,0.8059,0.8058,0.8056,0.8056,0.8054,0.8049,0.8048,0.8055,0.8055,0.8055,0,0.8203,0.8185,0.8174,0.8168,0.8151,0.8146,0.8139,0.8127,0.8119,0.8108,0.8103,0.809,0.8083,0.8073,0.8063,0.8064,0.8048,0.8047,0.8043,0.8043,0.8039,0.8039,0.8033,0.8036,0.8036,0.8036,0.8036,0,0.8197,0.8187,0.8174,0.8167,0.8156,0.8147,0.8136,0.8128,0.8118,0.8109,0.8101,0.8093,0.808,0.807,0.8062,0.805,0.8046,0.8041,0.8039,0.8042,0.8042,0.8037,0.8037,0.8035,0.8035,0.8035,0.8035,0,0.8195,0.8186,0.8173,0.8159,0.8155,0.8148,0.8135,0.8128,0.812,0.8108,0.8105,0.8092,0.808,0.8069,0.8053,0.8047,0.8034,0.8032,0.8039,0.8038,0.8034,0.8034,0.8023,0.802,0.8025,0.8025,0.8025,0,0.8191,0.8184,0.8169,0.8163,0.8156,0.8146,0.8139,0.8129,0.8122,0.8107,0.8101,0.8089,0.8078,0.8059,0.8047,0.8035,0.8032,0.8029,0.803,0.8032,0.8031,0.8032,0.8031,0.8028,0.8028,0.8028,0.8028,0,0.8185,0.8181,0.8171,0.816,0.8151,0.8141,0.8131,0.8126,0.8115,0.8107,0.8094,0.8086,0.807,0.8057,0.8043,0.8035,0.803,0.8028,0.8027,0.8029,0.8033,0.803,0.8038,0.8028,0.8028,0.8028,0.8028,0.8028,0.8182,0.8175,0.8164,0.8153,0.8145,0.8136,0.8128,0.812,0.8109,0.8096,0.8091,0.8078,0.8066,0.8047,0.8039,0.8028,0.8027,0.8025,0.8024,0.8024,0.8024,0.8035,0.8026,0.8026,0.8026,0.8026,0.8026,0,0.8175,0.8168,0.8158,0.8144,0.8136,0.8133,0.8121,0.8114,0.8103,0.8093,0.8083,0.8069,0.8056,0.8045,0.8032,0.8026,0.8023,0.8022,0.8022,0.8021,0.8026,0.8028,0.8025,0.8025,0.8025,0.8025,0.8025,0.8025,0.817,0.8159,0.8154,0.8138,0.813,0.8119,0.8112,0.8104,0.8096,0.808,0.807,0.8063,0.8052,0.8038,0.8027,0.8024,0.8019,0.8019,0.8015,0.802,0.802,0.802,0.8023,0.8018,0.8018,0.8011,0.8011,0.8011]},{"header":{"parameterUnit":"m.s-1","parameterCategory":1,"la1":30.2991,"la2":30.254,"lo1":-89.0895,"lo2":-89.0444,"dy":0.0017,"dx":0.0017,"nx":28,"ny":28,"refTime":"2023-09-10T09:00:00:Z","depth":0,"parameterNumber":3,"parameterNumberName":"V-component_of_WINDS"},"data":[0,0,0,0,0,0,0,0,0,0,0,0,0,0,0,0,0,0,0,0,0,0,0,0,0,0,0,0,0,0,0,0,0,0,0,0,0,0,0,0,0,0,0,0,0,0,0,0,0,0,0,0,0,0,0,0,0,0,-0.92,-0.9199,0,-0.9167,-0.9166,-0.9166,-0.9188,-0.9189,-0.919,-0.9191,-0.9153,-0.9151,-0.9149,0,0,0,0,0,0,0,0,0,0,0,0,0,-0.9277,-0.9275,-0.92,-0.9199,-0.9199,-0.9167,-0.9166,-0.9166,-0.9188,-0.9189,-0.919,-0.9191,-0.9154,-0.9151,-0.9149,0,0,0,0,0,0,0,0,0,0,0,0,0,-0.9243,-0.9275,-0.92,-0.9206,-0.9206,-0.9167,-0.9166,-0.9166,-0.9187,-0.9189,-0.919,-0.9192,-0.9154,-0.9151,-0.9149,-0.91,0,0,-0.914,-0.9138,0,0,0,0,0,0,0,0,-0.9245,-0.9241,-0.9205,-0.9205,-0.9206,-0.9183,-0.918,-0.9144,-0.9187,-0.9194,-0.9191,-0.9192,-0.9161,-0.9158,-0.9148,-0.9098,-0.9097,-0.9139,-0.9138,-0.9136,-0.9136,0,0,0,0,0,0,0,-0.9248,-0.9242,-0.9187,-0.9205,-0.9205,-0.9209,-0.9206,-0.9173,-0.917,-0.9194,-0.9195,-0.9191,-0.9162,-0.9151,-0.9148,-0.9096,-0.914,-0.9137,-0.9135,-0.9134,-0.9003,-0.9001,0,0,0,0,0,0,-0.925,-0.9244,-0.9188,-0.9186,-0.923,-0.9206,-0.9203,-0.9189,-0.917,-0.9169,-0.919,-0.9192,-0.9155,-0.9151,-0.9146,-0.9087,-0.9136,-0.9134,-0.9132,-0.9004,-0.9002,-0.9,0,0,0,0,0,0,-0.9252,-0.9245,-0.9189,-0.9215,-0.9208,-0.9203,-0.9187,-0.9187,-0.9177,-0.9167,-0.9166,-0.918,-0.9156,-0.915,-0.9111,-0.9086,-0.9132,-0.913,-0.9006,-0.9004,-0.9001,-0.8968,0,0,0,0,0,0,-0.9254,-0.9245,-0.9228,-0.9215,-0.9207,-0.9156,-0.9186,-0.9185,-0.9172,-0.9175,-0.9158,-0.9156,-0.9157,-0.9116,-0.9108,-0.9083,-0.9127,-0.9009,-0.9005,-0.9002,-0.8971,-0.8965,-0.8959,0,0,0,0,0,-0.9256,-0.9219,-0.9227,-0.922,-0.9185,-0.9154,-0.9149,-0.9152,-0.917,-0.9151,-0.9145,-0.9157,-0.909,-0.9111,-0.9104,-0.9076,-0.901,-0.9006,-0.9002,-0.8974,-0.8966,-0.8959,0,0,0,0,0,0,-0.9229,-0.9218,-0.9226,-0.9184,-0.917,-0.9158,-0.9135,-0.9144,-0.9124,-0.9127,-0.913,-0.9126,-0.9085,-0.9077,-0.9101,-0.9028,-0.9053,-0.9047,-0.9034,-0.9026,-0.902,-0.9022,-0.9125,0,0,0,0,0,-0.9218,-0.9195,-0.9186,-0.915,-0.9142,-0.914,-0.9126,-0.913,-0.9115,-0.9109,-0.91,-0.9084,-0.9059,-0.9042,-0.9019,-0.8971,-0.8966,-0.8948,-0.8942,-0.8937,-0.8931,-0.8903,-0.8894,-0.8988,-0.8988,-0.8988,0,0,-0.9195,-0.9186,-0.9171,-0.9144,-0.9133,-0.9108,-0.9135,-0.9107,-0.9087,-0.9104,-0.9066,-0.9059,-0.9041,-0.8997,-0.8977,-0.8989,-0.8905,-0.8932,-0.8928,-0.8925,-0.8898,-0.8889,-0.8881,-0.8985,-0.8985,-0.8986,0,0,-0.9139,-0.9131,-0.9099,-0.9088,-0.9073,-0.9071,-0.9063,-0.905,-0.9046,-0.9008,-0.902,-0.8996,-0.8954,-0.894,-0.8928,-0.8866,-0.8875,-0.8859,-0.8825,-0.8797,-0.879,-0.8784,-0.8759,-0.8751,-0.8854,-0.8853,-0.8853,0,-0.9112,-0.9075,-0.9081,-0.9052,-0.9039,-0.9054,-0.9021,-0.9009,-0.8986,-0.8976,-0.8991,-0.8937,-0.8926,-0.8878,-0.8863,-0.8853,-0.8842,-0.886,-0.8791,-0.8784,-0.8778,-0.8755,-0.8746,-0.8851,-0.8852,-0.8852,-0.8852,0,-0.9042,-0.9016,-0.8992,-0.897,-0.8954,-0.8923,-0.8922,-0.8905,-0.891,-0.8906,-0.8867,-0.8854,-0.8828,-0.8817,-0.8822,-0.8769,-0.8777,-0.8791,-0.8816,-0.8767,-0.8745,-0.8737,-0.8848,-0.8849,-0.885,-0.885,0,0,-0.8967,-0.8949,-0.8939,-0.8929,-0.8912,-0.8891,-0.886,-0.8836,-0.882,-0.8804,-0.8776,-0.874,-0.8753,-0.8738,-0.8741,-0.8717,-0.8666,-0.8734,-0.8734,-0.872,-0.8605,-0.8592,-0.8582,-0.8673,-0.8672,-0.867,-0.8605,0,-0.8908,-0.8855,-0.8859,-0.8808,-0.8783,-0.8797,-0.877,-0.8755,-0.8751,-0.8728,-0.8723,-0.8696,-0.8717,-0.8708,-0.8685,-0.8678,-0.8643,-0.8683,-0.8645,-0.8644,-0.8647,-0.8571,-0.8558,-0.8497,-0.8597,-0.8596,-0.8595,0,-0.8833,-0.8815,-0.8761,-0.8747,-0.8737,-0.8712,-0.8689,-0.8668,-0.8651,-0.865,-0.8634,-0.864,-0.8606,-0.8634,-0.8586,-0.8613,-0.8598,-0.8592,-0.859,-0.8584,-0.8615,-0.8561,-0.8478,-0.8468,-0.8582,-0.8583,-0.8584,0,-0.8781,-0.8743,-0.8706,-0.8696,-0.868,-0.8662,-0.8654,-0.8639,-0.8623,-0.8603,-0.8593,-0.8568,-0.8554,-0.8534,-0.8533,-0.8554,-0.8484,-0.8512,-0.848,-0.848,-0.8463,-0.8464,-0.8374,-0.8457,-0.8457,-0.8457,-0.8458,0,-0.8715,-0.8681,-0.8682,-0.8658,-0.862,-0.8625,-0.8586,-0.858,-0.8567,-0.8541,-0.8552,-0.8527,-0.8529,-0.8503,-0.8502,-0.8461,-0.8456,-0.8452,-0.8451,-0.8449,-0.8449,-0.8438,-0.8441,-0.8455,-0.8456,-0.8456,-0.8456,0,-0.8649,-0.8649,-0.8609,-0.8596,-0.8592,-0.8564,-0.8553,-0.853,-0.8527,-0.8494,-0.8486,-0.8481,-0.8451,-0.8449,-0.8415,-0.8414,-0.8364,-0.8369,-0.8369,-0.8369,-0.8336,-0.8338,-0.8234,-0.822,-0.8315,-0.8314,-0.8313,0,-0.8605,-0.858,-0.8565,-0.8549,-0.854,-0.8514,-0.8499,-0.8502,-0.8485,-0.8464,-0.8442,-0.8414,-0.8392,-0.8343,-0.8335,-0.8308,-0.8312,-0.8277,-0.8307,-0.8306,-0.8308,-0.8309,-0.8305,-0.827,-0.8269,-0.8268,-0.8268,0,-0.8527,-0.8528,-0.8506,-0.8483,-0.8464,-0.8446,-0.8429,-0.8415,-0.8416,-0.8396,-0.8367,-0.8349,-0.8314,-0.8285,-0.8259,-0.8249,-0.8257,-0.8258,-0.8249,-0.8245,-0.8246,-0.8243,-0.835,-0.826,-0.8261,-0.8262,-0.8262,-0.8262,-0.847,-0.8447,-0.8432,-0.8407,-0.8394,-0.8378,-0.8355,-0.835,-0.8325,-0.8298,-0.8301,-0.8267,-0.825,-0.8216,-0.8204,-0.8176,-0.8188,-0.8175,-0.8171,-0.8167,-0.8163,-0.8252,-0.8172,-0.8172,-0.8172,-0.8172,-0.8173,0,-0.839,-0.8382,-0.8358,-0.8334,-0.8313,-0.8326,-0.8307,-0.8288,-0.8259,-0.8243,-0.8221,-0.8185,-0.8157,-0.8147,-0.8119,-0.8098,-0.8101,-0.8091,-0.8091,-0.8088,-0.8155,-0.8165,-0.8088,-0.8088,-0.8088,-0.8088,-0.8088,-0.8088,-0.8346,-0.8307,-0.8306,-0.8261,-0.8252,-0.822,-0.8208,-0.8193,-0.818,-0.814,-0.8117,-0.8111,-0.8097,-0.8067,-0.8041,-0.8039,-0.8026,-0.8013,-0.8012,-0.8075,-0.8083,-0.8091,-0.81,-0.8011,-0.8011,-0.7947,-0.7946,-0.7946]}]]